Terug naar catalogus

SIRIUS 3

ActiefCommunicatieGEO
NORAD 25492·PAYLOAD·🇱🇺 Luxembourg

Gelanceerd Oct 5, 1998 vanaf Guiana Space Centre

Loading…

TLE

VersSource: Space-Track

Epoch: Sep 14, 2026, 12:16 UTC

1 25492U 98056B   26257.51169531  .00000016  00000-0  00000-0 0  9990
2 25492  11.9357  33.6423 0001910 128.5686  55.1368  0.99034134102002

Volg SIRIUS 3 in realtime met AllMySat

Download on the App Store